RH
55 22 45 54 58 60 63 65 62 57 56 57 57 62 62 59 54 50 45 39 16 22 38 36 62 82 69 84 67 60 58 71 81 95 86 73 63 78 95 90 78 87 85 48
94 82 51 23 49 56 60 62 62 64 64 60 59 56 57 59 61 57 51 48 44 26 16 29 43 38 82 90 67 78 64 52 51 59 69 70 72 79 83 84 85 70 72 50
99 98 97 94 70 25 41 54 57 59 61 62 62 62 59 54 51 50 48 46 45 43 36 18 22 33 41 39 74 70 58 54 63 60 36 50 51 56 53 40 37 40 40 64
95 91 98 99 98 98 73 28 29 44 51 55 57 57 55 54 52 49 46 41 40 38 36 35 26 17 27 35 42 43 48 58 68 69 64 65 62 60 70 66 62 56 49 48
100 99 100 94 96 99 100 96 89 48 26 31 42 48 50 50 51 49 46 42 41 37 32 37 30 28 22 17 25 32 38 44 48 46 45 45 45 42 41 41 43 45 50 51
99 98 99 100 100 99 96 99 99 95 94 62 19 27 37 45 47 46 46 46 43 39 38 37 34 31 28 25 23 19 18 23 28 32 35 38 43 46 45 40 37 34 35 32
96 99 100 100 100 100 100 99 100 99 90 100 88 40 20 26 37 42 45 44 43 42 40 38 35 34 33 31 29 26 24 23 22 22 22 22 28 28 26 24 24 25 26 31
56 89 100 100 100 100 100 100 100 99 92 100 100 100 88 45 23 27 33 42 41 40 39 39 38 37 35 33 32 32 29 27 25 24 23 24 26 27 27 27 28 28 27 30
4 4 6 23 59 92 100 100 100 100 97 95 100 100 100 100 88 44 25 29 35 38 37 36 35 35 34 33 32 31 30 29 27 25 24 22 22 22 21 22 24 28 37 41
8 6 6 5 5 6 15 54 94 100 100 96 100 100 100 100 100 100 92 49 31 27 30 31 32 32 32 30 29 30 29 27 27 25 24 24 26 24 24 38 38 38 43 50
10 8 6 6 5 5 5 4 8 34 81 99 100 100 100 100 100 100 97 100 94 74 39 34 31 36 28 24 23 23 22 22 20 21 20 25 29 28 32 36 45 54 62 73
7 6 5 4 4 3 4 4 4 4 9 36 69 99 100 100 100 100 100 100 100 100 99 94 83 71 57 54 50 35 28 26 26 36 65 72 70 72 74 75 80 86 92 90
9 8 8 6 5 4 3 3 2 3 3 3 3 15 89 100 100 100 100 100 100 100 99 100 100 100 94 95 90 81 83 75 80 77 87 95 97 99 100 100 100 92 86 88
9 8 8 7 6 5 5 4 4 3 2 2 3 2 3 19 98 100 100 100 100 100 100 100 100 100 100 100 100 100 100 99 100 100 95 95 96 98 100 100 99 99 99 100
14 12 10 10 10 10 10 8 8 7 6 3 3 3 3 3 4 72 100 100 100 100 100 100 100 100 100 100 100 100 98 99 100 100 99 98 100 100 100 100 96 98 100 100
14 13 12 12 12 13 12 12 23 24 26 13 5 5 4 4 5 4 21 100 100 100 100 100 100 100 100 100 100 100 98 99 100 100 100 100 100 100 100 100 100 100 100 100
17 15 13 11 13 15 19 25 39 47 44 35 23 17 20 13 9 8 14 68 100 100 100 100 100 100 100 100 100 100 100 100 100 100 100 100 100 100 100 100 100 100 100 100
22 21 18 13 15 22 30 55 74 72 62 45 33 29 34 63 74 58 36 71 100 100 100 100 100 100 100 100 100 100 100 100 100 100 100 100 100 100 100 100 100 100 97 96
25 20 20 19 23 34 55 82 89 76 60 51 53 34 52 93 100 100 100 100 100 100 100 100 100 100 100 100 100 100 100 100 100 100 100 100 100 100 100 100 100 100 100 100
34 26 21 23 44 71 83 95 90 79 50 47 40 37 79 88 100 100 100 100 100 100 100 100 100 100 100 100 100 100 100 100 100 100 100 100 100 100 100 100 100 100 100 100
33 30 31 44 72 92 100 100 94 68 41 43 42 40 48 100 100 100 100 100 100 100 100 100 100 100 100 100 100 100 100 100 100 100 100 100 100 100 100 100 100 98 95 93
27 30 46 83 100 100 100 100 71 44 45 68 73 65 54 85 100 100 100 100 100 100 100 100 100 100 100 100 100 100 100 100 100 100 100 99 98 98 97 92 87 82 75 70
38 50 89 100 100 100 100 92 71 65 71 81 85 93 99 86 98 100 100 100 100 100 100 100 100 100 100 100 100 100 100 99 98 97 97 97 96 94 90 84 76 58 35 24
80 93 100 100 100 100 98 94 84 85 92 96 95 97 94 93 89 96 100 100 100 100 100 100 100 100 100 100 100 99 96 95 94 92 87 78 64 43 31 25 24 23 24 23
72 89 96 97 96 94 88 83 81 88 95 97 99 96 90 94 89 88 96 100 100 100 100 100 100 100 100 99 97 93 86 74 60 48 42 36 34 35 35 30 24 18 14 17
80 70 71 75 85 95 97 95 92 91 93 96 98 99 99 100 98 95 92 93 95 95 97 91 90 87 77 67 60 54 52 51 50 49 44 34 24 16 15 19 25 36 42 44
100 100 100 100 100 100 99 98 98 98 99 100 100 100 100 100 100 100 97 94 90 86 82 78 74 70 65 57 46 34 23 18 16 17 20 25 35 45 52 54 53 55 55 57
Wind_Speed
51 54 54 52 50 48 46 43 41 38 38 35 32 27 26 24 21 20 17 14 10 9 9 8 6 2 2 5 8 10 17 18 23 24 27 30 34 37 39 41 41 42 43 45
51 52 55 58 57 55 53 51 49 46 45 43 38 36 33 31 28 25 23 20 16 13 8 7 5 3 3 5 9 14 17 18 20 22 24 27 29 31 36 39 41 43 42 42
54 53 56 56 57 60 60 58 57 54 52 49 47 43 42 37 34 33 30 26 23 21 17 12 10 8 7 9 11 13 15 16 18 21 24 22 24 24 29 33 35 32 32 30
54 53 54 58 58 61 62 64 65 61 59 56 54 51 49 43 40 40 37 33 31 28 25 22 18 16 16 15 14 16 18 19 21 23 23 25 26 27 28 29 30 35 26 34
58 59 59 59 59 60 64 66 66 66 65 62 60 59 54 50 47 46 42 40 40 37 32 31 28 26 24 24 23 23 22 21 23 25 26 27 28 28 28 28 30 31 30 36
63 62 61 59 58 60 63 62 65 70 68 66 65 63 60 57 56 53 51 45 46 44 39 41 36 35 33 32 31 30 31 30 31 33 33 36 38 31 34 34 34 36 40 37
71 70 69 67 66 62 59 60 63 65 66 69 68 67 65 62 61 61 58 54 53 49 47 48 46 45 43 41 38 38 37 36 39 41 41 49 39 38 39 41 41 43 43 46
65 71 73 73 71 71 70 66 64 64 66 67 67 70 71 67 66 65 64 62 59 57 55 54 54 53 53 50 48 45 44 44 46 48 49 50 50 44 46 48 47 48 47 52
55 55 56 61 66 71 75 73 69 67 69 67 68 67 69 74 70 70 68 66 64 63 61 60 62 61 57 59 57 53 51 49 51 55 54 57 56 55 54 52 57 53 55 57
60 61 59 59 60 59 59 64 69 70 69 71 70 69 67 70 75 76 73 69 68 67 67 68 67 67 65 65 62 60 58 57 57 56 61 63 62 58 58 62 60 60 61 62
61 61 61 61 63 64 62 62 61 62 64 69 69 68 68 68 69 73 74 74 73 73 72 71 70 72 70 70 66 65 63 60 61 61 63 70 65 65 65 65 67 67 67 67
65 64 64 65 66 65 66 67 66 65 63 62 63 67 66 65 63 66 69 70 73 77 76 77 76 76 75 74 73 69 70 66 63 65 68 70 71 72 72 71 71 72 72 71
70 69 69 69 69 69 68 68 69 69 68 65 61 60 64 63 62 61 62 64 68 71 74 75 78 78 77 76 76 74 76 74 74 71 74 72 73 73 73 71 71 71 70 67
60 63 65 64 64 63 64 64 64 67 69 68 65 65 62 61 61 61 59 58 58 61 66 71 72 73 72 72 74 74 75 74 72 73 72 70 70 69 69 68 66 61 58 57
35 37 39 40 42 41 42 42 45 49 56 62 64 64 63 61 59 58 61 59 55 51 51 53 56 61 65 67 66 67 68 68 68 68 66 64 59 56 53 55 57 56 54 54
28 29 31 33 34 35 34 31 33 35 36 44 50 52 52 55 56 56 58 57 57 58 55 52 48 47 47 51 52 55 55 54 52 51 49 49 48 50 55 53 51 52 54 56
23 24 25 26 26 28 27 27 24 26 29 31 34 35 34 38 42 46 48 50 48 52 54 53 51 50 50 55 57 56 55 55 55 54 51 48 48 49 49 49 50 52 56 59
22 22 21 21 22 22 21 21 20 21 24 25 26 25 27 31 35 38 43 46 45 41 41 48 52 49 46 46 47 47 47 47 45 47 49 51 52 54 55 57 57 55 56 57
23 22 20 19 18 18 17 17 17 18 19 19 19 19 20 22 29 28 30 35 37 44 44 45 43 41 43 49 51 50 50 49 47 48 49 49 49 51 54 55 55 56 57 59
24 21 19 16 15 14 14 14 15 16 17 18 20 17 16 16 17 25 28 27 35 38 37 38 40 42 44 43 45 47 47 47 47 48 49 49 50 51 54 55 57 59 58 60
24 19 15 11 11 10 10 11 12 13 13 12 14 16 17 19 19 20 25 32 30 31 36 36 36 39 41 42 45 45 46 47 46 47 49 50 52 53 54 55 55 57 59 61
22 13 8 6 6 6 8 8 8 10 8 7 8 10 12 15 16 19 23 25 25 25 29 32 32 32 30 31 30 29 31 34 36 39 41 44 46 48 49 51 54 55 56 57
12 6 3 3 4 4 5 4 4 5 5 6 6 7 9 10 12 14 16 19 21 22 25 28 29 29 29 28 29 31 34 36 39 40 41 40 40 42 45 47 49 49 48 48
7 3 1 3 4 4 3 3 4 4 4 5 5 5 7 10 11 14 17 16 17 16 17 19 20 21 22 25 27 30 32 34 35 36 38 39 40 41 41 41 41 40 40 41
5 2 0 2 2 1 1 1 2 3 4 5 4 4 6 8 10 13 15 17 19 19 20 20 21 22 24 26 29 31 32 34 35 36 37 37 36 36 37 37 37 37 36 33
6 4 3 3 4 3 2 2 2 3 5 5 5 6 7 8 8 9 11 14 15 16 19 21 23 25 26 27 28 29 29 29 30 30 31 32 32 32 31 30 28 27 26 27
11 11 10 9 7 5 4 4 3 3 3 3 3 4 4 5 6 6 6 7 9 10 12 14 15 17 19 20 22 23 24 24 24 24 24 23 22 22 23 23 24 25 25 25
Wind_Direction
258 257 256 255 257 257 259 260 261 261 266 266 270 270 275 280 285 292 301 311 322 338 355 9 13 35 138 201 192 197 211 216 226 230 225 228 229 225 227 230 231 237 241 238
261 260 259 258 257 257 257 258 260 260 261 264 266 268 268 270 274 276 281 286 291 297 296 309 319 294 246 209 221 220 219 217 218 228 234 240 245 245 245 245 246 245 248 250
263 264 262 259 258 259 259 258 257 257 259 260 262 263 264 266 269 271 272 272 274 276 277 271 265 260 256 243 223 213 225 225 228 231 229 228 235 239 242 244 249 255 254 255
261 256 259 263 262 256 254 256 257 258 257 258 258 259 261 261 263 264 266 267 268 265 264 269 264 250 246 245 243 241 236 232 233 235 240 238 238 239 241 243 247 247 251 253
263 260 258 257 256 261 263 255 252 253 254 255 255 258 256 258 258 259 260 263 263 263 264 260 259 258 251 244 244 245 244 242 241 243 243 239 237 239 244 248 250 255 253 256
263 263 262 259 258 257 254 257 262 260 255 253 254 253 254 254 255 256 257 255 257 260 260 261 259 256 254 253 250 246 247 249 248 249 249 251 249 249 254 256 258 264 263 266
261 260 259 259 258 257 258 258 257 256 259 256 252 252 252 251 251 253 253 254 255 256 255 258 258 259 256 253 252 253 254 253 254 255 252 254 257 257 261 262 263 267 270 271
260 259 258 257 256 255 256 256 257 256 256 254 255 254 250 249 250 250 250 251 253 253 254 254 256 256 255 257 256 252 253 255 260 261 263 264 264 264 262 264 266 267 270 272
267 264 263 261 258 257 254 252 252 253 254 253 254 253 255 252 246 247 250 250 250 253 253 253 254 255 257 256 256 258 258 257 258 263 264 267 270 270 268 269 267 270 273 275
272 270 269 268 264 262 261 260 255 252 251 249 251 251 249 251 251 249 246 247 249 250 251 252 253 255 257 258 260 259 258 259 262 264 267 265 266 268 272 274 276 276 278 278
272 272 271 269 267 266 265 263 263 263 262 252 252 250 250 248 248 251 251 247 246 246 249 251 253 255 257 259 260 262 261 259 259 260 263 266 271 269 272 274 275 276 276 279
274 274 273 273 273 269 266 266 265 264 262 260 260 255 254 252 252 252 248 249 252 248 247 249 250 252 254 257 259 260 261 263 263 260 261 263 265 270 272 273 275 277 280 282
273 274 274 275 274 274 271 267 264 263 261 260 257 254 257 252 254 254 253 249 249 251 253 254 254 252 256 255 257 258 259 260 261 261 264 266 268 270 272 274 276 278 279 280
274 273 273 274 275 274 272 270 267 263 261 257 254 254 250 251 249 249 254 254 254 253 251 252 254 256 257 260 261 262 261 264 265 267 268 268 268 270 273 274 275 275 275 275
276 274 272 270 270 271 271 271 270 267 263 259 255 253 252 249 246 247 246 246 246 250 253 251 253 255 256 257 258 257 258 260 262 265 267 268 269 268 264 265 268 271 270 269
284 280 276 273 271 272 273 273 272 271 267 263 257 251 251 250 247 244 243 246 247 246 247 247 253 254 254 257 258 260 261 261 262 262 261 261 261 259 265 267 264 264 265 265
296 291 287 279 272 270 274 274 275 272 270 268 268 258 246 242 241 240 240 240 245 243 245 245 246 246 247 251 255 257 257 257 258 261 262 260 260 257 256 252 253 260 261 260
301 298 294 284 274 271 271 271 272 272 269 272 270 272 254 238 231 229 231 228 231 235 237 239 238 239 241 244 248 252 255 256 255 250 245 246 249 252 254 257 264 264 266 268
305 303 297 287 275 269 268 267 265 270 271 261 261 262 259 250 231 222 223 222 228 231 235 236 238 237 234 236 241 244 247 250 252 254 255 255 254 252 252 251 252 256 261 265
312 304 297 285 272 268 266 267 262 266 270 258 253 254 244 243 240 226 209 206 207 220 223 226 228 229 232 235 237 238 241 243 245 245 244 243 243 245 247 250 254 263 270 275
318 309 302 286 268 264 257 265 260 267 268 254 248 249 244 233 221 217 215 209 211 216 219 222 225 227 232 235 236 238 239 239 239 240 242 245 249 253 258 263 269 274 276 277
317 306 296 279 259 253 246 252 258 257 258 235 224 232 235 226 220 213 210 215 216 217 220 221 219 221 226 228 231 233 233 234 237 240 245 251 258 265 271 274 276 279 282 284
315 309 293 247 228 224 222 226 238 239 229 220 212 210 210 209 209 204 205 211 220 224 227 233 237 241 245 251 251 249 251 255 259 263 267 270 271 272 273 276 279 282 283 283
358 0 252 207 189 202 215 226 230 230 213 196 189 194 201 211 207 203 199 206 214 220 223 228 236 240 241 243 246 249 253 257 261 264 267 270 273 276 277 277 278 281 284 288
357 12 213 183 194 208 230 234 225 227 227 227 222 207 204 205 207 209 209 211 219 224 228 234 238 242 247 252 257 261 264 267 270 272 274 276 278 280 282 284 286 288 288 288
46 82 115 118 110 115 141 191 215 218 216 212 211 210 210 213 211 211 214 219 228 234 240 245 249 253 256 259 263 266 268 271 274 276 278 279 281 283 285 285 285 286 287 287
59 67 75 77 82 87 89 87 83 92 98 131 159 176 187 195 202 210 217 227 233 239 245 252 257 261 264 268 272 275 276 277 277 278 280 282 283 282 282 283 284 286 289 289